Regional Weather Roundup
Issued by NWS

Home | Current Version | Previous Version | Text Only | Print | Product List | Glossary Off
Versions: 1 2 3 4 5 6 7 8 9 10 11 12 13 14 15 16 17 18 19 20 21 22 23 24 25 26 27

000
ASUS45 KCYS 012010
RWRWY

WYOMING REGIONAL WEATHER ROUNDUP
NATIONAL WEATHER SERVICE CHEYENNE WY
200 PM MDT SUN MAY 01 2016

NOTE:  "FAIR" INDICATES FEW OR NO CLOUDS BELOW 12,000 FEET
WITH NO SIGNIFICANT WEATHER AND/OR OBSTRUCTIONS TO VISIBILITY.

WYZ001-012100-
YELLOWSTONE NATIONAL PARK

CITY           SKY/WX    TMP DP  RH WIND       PRES   REMARKS
LK YELLOWSTONE   N/A     43  16  33 VRB3      30.28F
W YELLOWSTONE  NOT AVBL

$$
WYZ002>013-054>058-071-098>099-012100-
NORTHERN WYOMING

CITY           SKY/WX    TMP DP  RH WIND       PRES   REMARKS
JACKSON        MOSUNNY   52  18  25 NE16G29   30.20F
CODY           FAIR      52  27  37 NE5       30.27F
GREYBULL       FAIR      60  26  27 VRB6      30.25F
WORLAND        FAIR      54  26  34 CALM      30.26F
SHERIDAN       FAIR      56  28  34 CALM      30.28F
BUFFALO          N/A    N/A N/A N/A MISG      30.29F
GILLETTE       FAIR      52  27  38 CALM      30.28F
HULETT         FAIR      54  28  37 E7        30.29F
NEWCASTLE      FAIR      54  23  30 NW6       30.27F

$$
WYZ014>020-022>026-101>103-012100-
CENTRAL WYOMING

CITY           SKY/WX    TMP DP  RH WIND       PRES   REMARKS
BIG PINEY      PTSUNNY   45  21  38 CALM      30.23F
PINEDALE       FAIR      46  18  31 E12       30.24S
DUBOIS         NOT AVBL
LANDER         CLOUDY    45  31  58 NW10      30.30F
RIVERTON       FAIR      48  31  51 CALM      30.31F
CASPER         PTSUNNY   46  24  42 NE13      30.28F
DOUGLAS        CLOUDY    46  30  53 SW12      30.30F

$$
WYZ021-027>030-104>119-012100-
SOUTHERN WYOMING

CITY           SKY/WX    TMP DP  RH WIND       PRES   REMARKS
EVANSTON       PTSUNNY   40  21  46 E35G44    30.17F WCI  28
KEMMERER       FAIR      43  21  42 E29G36    30.21F
FORT BRIDGER   MOCLDY    41  27  56 E22       30.24F
ROCK SPRINGS   FAIR      43  23  45 NE25G38   30.21S
DIXON          FAIR      51  24  35 E12G18    30.14F
RAWLINS        FAIR      43  23  45 NE24G32   30.24F
SARATOGA       CLOUDY    41  25  52 CALM      30.20F
LARAMIE        CLOUDY    31  22  69 VRB7      30.25F WCI  24
CHEYENNE       PTSUNNY   37  24  59 N14       30.27F WCI  28
TORRINGTON     CLOUDY    50  25  37 N8        30.27F
PINE BLUFFS    FAIR      41  27  56 N14       30.29S

$$




USA.gov is the U.S. government's official web portal to all federal, state and local government web resources and services.